[[{"header":{"parameterUnit":"m.s-1","parameterCategory":1,"la1":30.2991,"la2":30.254,"lo1":-89.0895,"lo2":-89.0444,"dy":0.0017,"dx":0.0017,"nx":28,"ny":28,"refTime":"2025-02-09T09:00:00:Z","depth":0,"parameterNumber":2,"parameterNumberName":"U-component_of_WINDS"},"data":[0,0,0,0,0,0,0,0,0,0,0,0,0,0,0,0,0,0,0,0,0,0,0,0,0,0,0,0,0,0,0,0,0,0,0,0,0,0,0,0,0,0,0,0,0,0,0,0,0,0,0,0,0,0,0,0,0,0,-1.1481,-1.1482,0,-1.1564,-1.1565,-1.1566,-1.1606,-1.1606,-1.1606,-1.1606,-1.1692,-1.1694,-1.1696,0,0,0,0,0,0,0,0,0,0,0,0,0,-1.1355,-1.1357,-1.1481,-1.1482,-1.1483,-1.1564,-1.1565,-1.1566,-1.1606,-1.1606,-1.1606,-1.1606,-1.1691,-1.1694,-1.1697,0,0,0,0,0,0,0,0,0,0,0,0,0,-1.1421,-1.1358,-1.148,-1.1512,-1.1516,-1.1564,-1.1565,-1.1567,-1.1606,-1.1606,-1.1606,-1.1606,-1.169,-1.1694,-1.1697,-1.172,0,0,-1.1708,-1.1709,0,0,0,0,0,0,0,0,-1.1418,-1.1426,-1.1507,-1.151,-1.1514,-1.1575,-1.1553,-1.1618,-1.1606,-1.1572,-1.1606,-1.1606,-1.1653,-1.166,-1.1675,-1.1724,-1.1727,-1.1708,-1.171,-1.1712,-1.1713,0,0,0,0,0,0,0,-1.1413,-1.1423,-1.1514,-1.1508,-1.1513,-1.1522,-1.1532,-1.1565,-1.1612,-1.1575,-1.1578,-1.1587,-1.1655,-1.1672,-1.1678,-1.1728,-1.1708,-1.1711,-1.1713,-1.1714,-1.1799,-1.18,0,0,0,0,0,0,-1.1403,-1.1419,-1.1511,-1.1516,-1.1465,-1.1525,-1.1535,-1.1555,-1.1611,-1.162,-1.1587,-1.1589,-1.1666,-1.1674,-1.1681,-1.1711,-1.1712,-1.1715,-1.1717,-1.1799,-1.1799,-1.18,0,0,0,0,0,0,-1.14,-1.1411,-1.1508,-1.1468,-1.1481,-1.1527,-1.1549,-1.1557,-1.1574,-1.1621,-1.1629,-1.1596,-1.1666,-1.1676,-1.171,-1.1715,-1.1716,-1.172,-1.1799,-1.1799,-1.18,-1.1771,0,0,0,0,0,0,-1.1397,-1.141,-1.1419,-1.1468,-1.1483,-1.1535,-1.155,-1.1559,-1.158,-1.1583,-1.1631,-1.1639,-1.1667,-1.1704,-1.1713,-1.1719,-1.1722,-1.1799,-1.1799,-1.18,-1.1772,-1.1771,-1.1769,0,0,0,0,0,-1.1392,-1.1408,-1.1419,-1.143,-1.1496,-1.1535,-1.1544,-1.1575,-1.158,-1.159,-1.162,-1.1638,-1.1712,-1.1707,-1.1718,-1.1725,-1.1799,-1.1799,-1.1799,-1.1773,-1.1771,-1.1769,0,0,0,0,0,0,-1.1358,-1.1415,-1.1428,-1.146,-1.1492,-1.1542,-1.1555,-1.1573,-1.1604,-1.1606,-1.1644,-1.1654,-1.1685,-1.1708,-1.1701,-1.175,-1.1757,-1.176,-1.1733,-1.1732,-1.1731,-1.1725,-1.1725,0,0,0,0,0,-1.1354,-1.1381,-1.143,-1.1453,-1.1469,-1.1509,-1.1527,-1.1549,-1.1584,-1.1598,-1.1631,-1.1664,-1.1695,-1.1715,-1.1746,-1.1775,-1.1787,-1.1786,-1.1784,-1.1783,-1.1785,-1.1802,-1.1802,-1.1801,-1.1801,-1.1801,0,0,-1.1347,-1.1381,-1.1396,-1.1447,-1.1475,-1.1503,-1.152,-1.1549,-1.157,-1.1602,-1.1636,-1.1661,-1.1701,-1.1733,-1.1748,-1.1753,-1.1787,-1.1783,-1.1782,-1.1785,-1.1803,-1.1803,-1.1803,-1.1801,-1.1801,-1.1801,0,0,-1.1347,-1.1376,-1.1399,-1.1426,-1.1467,-1.1494,-1.1499,-1.1546,-1.1564,-1.1598,-1.1623,-1.1649,-1.1701,-1.1729,-1.175,-1.176,-1.1778,-1.1769,-1.1762,-1.1779,-1.1779,-1.1779,-1.1783,-1.1784,-1.177,-1.177,-1.177,0,-1.1333,-1.1375,-1.1408,-1.1435,-1.1457,-1.1488,-1.1511,-1.1536,-1.1585,-1.16,-1.1605,-1.1671,-1.17,-1.1739,-1.1741,-1.1757,-1.1765,-1.1764,-1.1776,-1.1777,-1.1777,-1.1782,-1.1783,-1.1769,-1.1769,-1.1769,-1.177,0,-1.1355,-1.1384,-1.1398,-1.1445,-1.1468,-1.1493,-1.153,-1.1549,-1.1569,-1.1594,-1.1629,-1.1665,-1.1704,-1.1715,-1.1734,-1.1756,-1.1758,-1.1769,-1.1777,-1.1776,-1.178,-1.1782,-1.1767,-1.1768,-1.1768,-1.1768,0,0,-1.1337,-1.1402,-1.1406,-1.1428,-1.1475,-1.1499,-1.1525,-1.1563,-1.1579,-1.1612,-1.1635,-1.1679,-1.1689,-1.1713,-1.1735,-1.175,-1.1756,-1.1759,-1.1761,-1.1758,-1.1783,-1.1774,-1.1776,-1.1768,-1.1768,-1.1769,-1.178,0,-1.1345,-1.1393,-1.1423,-1.146,-1.1487,-1.1516,-1.1539,-1.1571,-1.1596,-1.1623,-1.165,-1.1681,-1.1692,-1.1706,-1.1722,-1.1752,-1.1762,-1.1751,-1.179,-1.1791,-1.178,-1.1778,-1.1769,-1.1778,-1.1782,-1.1782,-1.1782,0,-1.136,-1.1392,-1.1431,-1.1475,-1.1488,-1.1508,-1.1545,-1.157,-1.1607,-1.1624,-1.165,-1.1673,-1.1702,-1.1707,-1.1748,-1.174,-1.1758,-1.1775,-1.1776,-1.1781,-1.1787,-1.1783,-1.1782,-1.1783,-1.1785,-1.1785,-1.1785,0,-1.1343,-1.1396,-1.1426,-1.1444,-1.1496,-1.151,-1.1532,-1.1569,-1.159,-1.1622,-1.1636,-1.1671,-1.1691,-1.1718,-1.1749,-1.175,-1.1787,-1.1795,-1.1802,-1.1801,-1.1809,-1.1808,-1.181,-1.182,-1.182,-1.1819,-1.1819,0,-1.1348,-1.1371,-1.1419,-1.1438,-1.1464,-1.1498,-1.1524,-1.1549,-1.1581,-1.1605,-1.1632,-1.1654,-1.1695,-1.1722,-1.1746,-1.1777,-1.1785,-1.18,-1.1806,-1.1798,-1.1796,-1.181,-1.181,-1.182,-1.182,-1.182,-1.182,0,-1.1334,-1.1367,-1.1402,-1.1449,-1.1461,-1.1479,-1.1519,-1.1538,-1.1564,-1.1594,-1.1603,-1.1644,-1.1677,-1.1711,-1.1756,-1.1773,-1.1802,-1.1811,-1.179,-1.1794,-1.1799,-1.1798,-1.181,-1.1814,-1.182,-1.182,-1.182,0,-1.1336,-1.1354,-1.1402,-1.142,-1.1442,-1.1471,-1.1492,-1.1526,-1.1547,-1.159,-1.1604,-1.1639,-1.1669,-1.1721,-1.1755,-1.179,-1.18,-1.1801,-1.1805,-1.1796,-1.18,-1.1799,-1.1801,-1.18,-1.18,-1.18,-1.18,0,-1.1335,-1.135,-1.138,-1.1415,-1.1439,-1.1468,-1.1499,-1.1512,-1.1552,-1.1575,-1.1609,-1.1632,-1.1678,-1.1712,-1.1751,-1.1775,-1.1794,-1.1798,-1.1802,-1.1793,-1.178,-1.1788,-1.1787,-1.1798,-1.1798,-1.1798,-1.1798,-1.1798,-1.1329,-1.1346,-1.1383,-1.1415,-1.1441,-1.1469,-1.1489,-1.1517,-1.1546,-1.1586,-1.1605,-1.1639,-1.1675,-1.1729,-1.1752,-1.1779,-1.1785,-1.179,-1.1791,-1.1792,-1.179,-1.1776,-1.1787,-1.1787,-1.1787,-1.1787,-1.1787,0,-1.133,-1.1354,-1.1383,-1.1425,-1.145,-1.1465,-1.1499,-1.1519,-1.1549,-1.1581,-1.161,-1.1649,-1.1683,-1.1719,-1.1755,-1.177,-1.178,-1.1778,-1.1778,-1.1783,-1.1783,-1.1776,-1.177,-1.177,-1.177,-1.177,-1.177,-1.177,-1.1333,-1.1363,-1.1382,-1.1426,-1.1451,-1.1484,-1.1503,-1.1529,-1.1554,-1.1597,-1.1625,-1.1648,-1.1682,-1.172,-1.1752,-1.1762,-1.1774,-1.177,-1.1782,-1.1782,-1.1783,-1.1784,-1.1778,-1.1772,-1.1772,-1.178,-1.178,-1.178]},{"header":{"parameterUnit":"m.s-1","parameterCategory":1,"la1":30.2991,"la2":30.254,"lo1":-89.0895,"lo2":-89.0444,"dy":0.0017,"dx":0.0017,"nx":28,"ny":28,"refTime":"2025-02-09T09:00:00:Z","depth":0,"parameterNumber":3,"parameterNumberName":"V-component_of_WINDS"},"data":[0,0,0,0,0,0,0,0,0,0,0,0,0,0,0,0,0,0,0,0,0,0,0,0,0,0,0,0,0,0,0,0,0,0,0,0,0,0,0,0,0,0,0,0,0,0,0,0,0,0,0,0,0,0,0,0,0,0,1.0069,1.0071,0,1.0219,1.022,1.0222,1.0275,1.0274,1.0274,1.0273,1.0427,1.0432,1.0437,0,0,0,0,0,0,0,0,0,0,0,0,0,0.9832,0.9836,1.0069,1.0071,1.0073,1.0218,1.022,1.0223,1.0275,1.0274,1.0274,1.0273,1.0426,1.0431,1.0437,0,0,0,0,0,0,0,0,0,0,0,0,0,0.9954,0.9838,1.0069,1.0117,1.0122,1.0218,1.0221,1.0223,1.0275,1.0274,1.0273,1.0273,1.0424,1.0431,1.0438,1.0497,0,0,1.0459,1.0462,0,0,0,0,0,0,0,0,0.9947,0.9962,1.0108,1.0114,1.012,1.0227,1.0194,1.0315,1.0275,1.0217,1.0273,1.0272,1.0362,1.0374,1.0404,1.0504,1.0511,1.046,1.0464,1.0467,1.0469,0,0,0,0,0,0,0,0.9938,0.9956,1.0128,1.011,1.0117,1.0131,1.0148,1.0217,1.0292,1.0222,1.0226,1.0243,1.0365,1.0397,1.0408,1.0513,1.0459,1.0465,1.047,1.0472,1.0673,1.0674,0,0,0,0,0,0,0.9922,0.9949,1.0124,1.0133,1.003,1.0136,1.0155,1.0194,1.0292,1.0306,1.0244,1.0245,1.0385,1.0399,1.0413,1.0491,1.0467,1.0473,1.0477,1.0672,1.0673,1.0674,0,0,0,0,0,0,0.9916,0.9937,1.0118,1.0042,1.0066,1.0141,1.0185,1.0197,1.0229,1.0308,1.0322,1.0262,1.0385,1.0403,1.0476,1.0497,1.0476,1.0483,1.067,1.0672,1.0674,1.0646,0,0,0,0,0,0,0.9909,0.9934,0.9957,1.0042,1.007,1.0178,1.0186,1.0201,1.0241,1.0244,1.0329,1.0342,1.0386,1.0466,1.0483,1.0506,1.0488,1.0669,1.0671,1.0673,1.0645,1.0646,1.0647,0,0,0,0,0,0.9901,0.9943,0.9958,0.9979,1.01,1.0179,1.0195,1.0243,1.0242,1.0266,1.0317,1.034,1.0491,1.0473,1.0493,1.0518,1.0668,1.067,1.0673,1.0645,1.0646,1.0647,0,0,0,0,0,0,0.9859,0.9955,0.9973,1.0044,1.0103,1.0187,1.0219,1.0243,1.0304,1.0304,1.0363,1.0381,1.045,1.0491,1.0469,1.0582,1.0581,1.0588,1.0553,1.0555,1.0556,1.0545,1.0494,0,0,0,0,0,0.9858,0.9913,0.9994,1.005,1.0078,1.0143,1.0179,1.0212,1.0275,1.0301,1.0357,1.0418,1.048,1.0519,1.058,1.0651,1.0671,1.0679,1.0679,1.068,1.0686,1.0728,1.0733,1.0683,1.0683,1.0683,0,0,0.9857,0.9916,0.9947,1.0043,1.0092,1.0149,1.0164,1.0223,1.0267,1.031,1.0383,1.0426,1.0498,1.0571,1.0605,1.0607,1.0704,1.0683,1.0683,1.0689,1.0731,1.0736,1.074,1.0685,1.0684,1.0684,0,0,0.9884,0.9934,0.9986,1.0035,1.011,1.0153,1.0165,1.0247,1.0277,1.0351,1.0385,1.0438,1.0542,1.0593,1.0632,1.068,1.0703,1.0698,1.0704,1.0744,1.0748,1.0752,1.0771,1.0777,1.0703,1.0703,1.0703,0,0.9873,0.996,1.001,1.0068,1.011,1.0151,1.0205,1.0251,1.0341,1.037,1.037,1.0503,1.0555,1.0641,1.0652,1.0682,1.0699,1.0689,1.0744,1.0748,1.0752,1.0771,1.0777,1.0702,1.0702,1.0702,1.0702,0,0.9944,1.0003,1.0037,1.0123,1.0169,1.0224,1.0284,1.0324,1.0353,1.0396,1.0472,1.0535,1.061,1.0632,1.0661,1.0723,1.0722,1.0732,1.0733,1.0755,1.0774,1.0781,1.07,1.0701,1.0701,1.0701,0,0,0.995,1.0064,1.0075,1.0116,1.0201,1.0249,1.0307,1.038,1.0414,1.0475,1.0527,1.0615,1.0625,1.067,1.0704,1.0739,1.0775,1.0746,1.0749,1.0751,1.085,1.0843,1.085,1.0791,1.0792,1.0794,1.0844,0,0.999,1.0095,1.0142,1.0226,1.0283,1.0324,1.0375,1.0433,1.0475,1.053,1.0577,1.0639,1.0647,1.0675,1.0711,1.0763,1.0796,1.076,1.0841,1.0843,1.0823,1.0859,1.0852,1.0897,1.0852,1.0853,1.0854,0,1.005,1.0112,1.0201,1.0282,1.0307,1.0352,1.0424,1.0475,1.0543,1.0572,1.0622,1.0655,1.0719,1.0714,1.0803,1.0778,1.0813,1.0844,1.0847,1.0858,1.0851,1.0873,1.0912,1.0919,1.0865,1.0864,1.0863,0,1.0048,1.0153,1.0221,1.0254,1.0348,1.0379,1.042,1.0487,1.0529,1.0592,1.062,1.0689,1.0727,1.0781,1.0832,1.0823,1.0918,1.0916,1.0944,1.0943,1.0964,1.0962,1.1011,1.0983,1.0983,1.0983,1.0983,0,1.0088,1.0142,1.0221,1.0263,1.0325,1.0379,1.0439,1.0483,1.0543,1.0595,1.0634,1.0682,1.0746,1.0803,1.0843,1.0913,1.0929,1.0955,1.0965,1.0953,1.095,1.0978,1.0977,1.0985,1.0985,1.0984,1.0984,0,1.0096,1.0151,1.0228,1.0311,1.0334,1.0376,1.0448,1.0491,1.0535,1.06,1.0619,1.0689,1.0757,1.0814,1.0904,1.0931,1.1004,1.1015,1.0981,1.0987,1.1013,1.101,1.1083,1.1096,1.1058,1.1058,1.1058,0,1.0119,1.0162,1.025,1.0287,1.0328,1.0388,1.0431,1.0485,1.0529,1.0609,1.0643,1.0714,1.0775,1.0883,1.0942,1.1012,1.1026,1.1047,1.1037,1.1023,1.1029,1.1026,1.1032,1.1048,1.1048,1.1048,1.1048,0,1.0155,1.0181,1.024,1.031,1.036,1.0418,1.0476,1.0505,1.0571,1.0618,1.0689,1.0735,1.0827,1.0899,1.0975,1.1018,1.1045,1.1051,1.1062,1.105,1.1029,1.1043,1.0986,1.1049,1.1049,1.1049,1.1049,1.1049,1.0173,1.0214,1.0282,1.0348,1.0398,1.0452,1.0497,1.0547,1.0607,1.0686,1.0715,1.0788,1.0856,1.0961,1.1004,1.1063,1.1066,1.108,1.1085,1.1088,1.1087,1.1018,1.1077,1.1077,1.1077,1.1077,1.1077,0,1.0213,1.0259,1.0319,1.04,1.0452,1.0472,1.0538,1.0581,1.0645,1.0705,1.0764,1.0846,1.0916,1.098,1.1053,1.1088,1.1102,1.1105,1.1104,1.1114,1.1079,1.1064,1.1093,1.1093,1.1093,1.1092,1.1092,1.1092,1.024,1.031,1.0343,1.0439,1.0485,1.0557,1.0593,1.0644,1.0693,1.0783,1.084,1.0882,1.0945,1.1023,1.1088,1.1105,1.1131,1.1131,1.1152,1.1119,1.1116,1.1114,1.11,1.1136,1.1136,1.1182,1.1183,1.1183]}]]